Regional Weather Roundup
Issued by NWS Goodland, KS

Home | Current Version | Previous Version | Graphics & Text | Print | Product List | Glossary On
Versions: 1 2 3 4 5 6 7 8 9 10 11 12 13 14 15 16 17 18 19 20 21 22 23 24 25 26 27 28 29 30 31 32 33 34 35 36 37 38 39 40 41 42 43 44 45 46 47 48 49 50
000
ASUS43 KGLD 040059
RWRGLD

GOODLAND FORECAST AREA HOURLY WEATHER ROUNDUP
NATIONAL WEATHER SERVICE GOODLAND KS
700 PM MDT THU SEP 03 2015

...OFFICIAL OBSERVATIONS...

CITY           SKY/WX    TMP DP  RH WIND       PRES   REMARKS
GOODLAND KS    CLOUDY    88  54  31 S13       29.80R
HILL CITY KS   CLOUDY    91  58  32 S14G26    29.76S
IMPERIAL NEB   CLOUDY    85  54  34 SW6       29.78R
MCCOOK NEB     CLOUDY    91  57  31 S17G24    29.74R
AKRON CO       CLOUDY    80  46  30 NW16      29.90R
BURLINGTON CO  MOCLDY    83  50  31 SE8       29.83S
LIMON CO       CLOUDY    67  53  61 NW28G39   29.98R
$$

...UNOFFICIAL OBSERVATIONS...

CITY           SKY/WX    TMP DP  RH WIND       PRES   REMARKS
COLBY KS       CLEAR     88  61  40 SE10      29.79F
GOVE KS          N/A     90  32  12 MISG        N/A
LENORA KS        N/A     89  32  13 MISG        N/A
NORTON KS      CLEAR     88  50  27 S10G20    29.76R
SHARON SPRINGS   N/A     89  55  31 S8          N/A
TRENTON NEB      N/A     88  32  13 S10         N/A
KIT CARSON CO    N/A     89  49  25 MISG        N/A
YUMA CO          N/A     85  50  29 CALM        N/A
$$



USA.gov is the U.S. government's official web portal to all federal, state and local government web resources and services.